www.pogodaiklimat.ru

Погода и климат >> Архив погоды >> Индонезия >> Аэропорт Сукарно-Хатта


ПОГОДА в Аэропорту Сукарно-Хатта

  • Прогноз погоды в Аэропорту Сукарно-Хатта
  • Монитор погоды в Аэропорту Сукарно-Хатта

АРХИВ ПОГОДЫ в Аэропорту Сукарно-Хатта

Время (UTC), дата Ветер
(напр.,м/с)
 
Видим.   Явления Облачность Т
(С)
Тd
(С)
f
(%)
Тe
(С)
Тes
(С)
Комфортность P
(гПа)
Po
(гПа)
Тmin
(С)
Tmax
(С)
R
(мм)
R24
(мм)
S
(см)
09 15.08 СВ 6 8000 м 8/3 600 м
[Sc diur, vesp As op Ci fib]
+29.6 +23.2 69 +40 +41 очень
душно
1010.7 1009.4
12 15.08 СВ 4 8000 м 8/3 600 м
[Sc diur, vesp As op Ci fib]
+27.9 +22.8 74 +37 +37 очень
душно
1011.9 1010.6 +32.4
15 15.08 В 3 7000 м 6/3 600 м
[Sc diur, vesp As trans Ci fib]
+27.1 +23.0 78 +36 +36 очень
душно
1013.6 1012.3
18 15.08 Ю 2 4000 м мгла 6/3 600 м
[Sc diur, vesp As trans Ci fib]
+25.3 +21.6 80 +32 +32 очень
душно
1012.2 1010.9
21 15.08 ЮЗ 2 2500 м мгла 6/3 630 м
[Sc diur, vesp As trans Ci fib]
+24.0 +21.6 86 +31 +31 очень
душно
1011.8 1010.5
00 16.08 ЮЗ 2 4000 м мгла 6/3 600 м
[Sc diur, vesp As op Ci fib]
+24.8 +22.3 86 +32 +33 очень
душно
1013.7 1012.4 +24.0
03 16.08 В 1 6000 м 6/3 600 м
[Sc diur, vesp As op Ci fib]
+30.2 +22.6 64 +40 +50 очень
душно
1014.1 1012.8
06 16.08 С 4 6000 м 6/3 600 м
[Sc diur, vesp As op Ci fib]
+31.7 +23.0 60 +42 +49 опасность
перегрева
1011.5 1010.2
09 16.08 СВ 5 7000 м 6/3 600 м
[Sc diur, vesp As op Ci fib]
+29.8 +22.5 65 +39 +40 очень
душно
1010.6 1009.3
12 16.08 В 3 6000 м 6/3 600 м
[Sc diur, vesp As op Ci fib]
+27.8 +23.0 75 +37 +37 очень
душно
1012.2 1010.8 +32.3
15 16.08 В 2 5000 м мгла 8/3 600 м
[Sc diur, vesp As op Ci fib]
+27.5 +23.2 77 +37 +37 очень
душно
1013.6 1012.3
18 16.08 Ю 1 5000 м мгла 8/3 600 м
[Sc diur, vesp As op Ci fib]
+26.2 +21.4 75 +33 +33 очень
душно
1013.1 1011.8
21 16.08 ЮЗ 1 6000 м 8/3 600 м
[Sc diur, vesp As op Ci fib]
+25.1 +21.0 78 +32 +32 очень
душно
1012.5 1011.2
00 17.08 Ю 1 6000 м 8/3 600 м
[Sc diur, vesp As op Ci fib]
+25.0 +21.8 82 +32 +33 очень
душно
1013.8 1012.5 +24.6
03 17.08 СЗ 2 5000 м мгла 8/3 600 м
[Sc diur, vesp As op Ci fib]
+30.3 +22.1 62 +39 +47 очень
душно
1014.4 1013.1
06 17.08 СВ 4 6000 м 8/3 600 м
[Sc diur, vesp As op Ci fib]
+31.8 +23.1 60 +42 +48 опасность
перегрева
1011.7 1010.4
09 17.08 СВ 4 7000 м 8/3 600 м
[Sc diur, vesp As op Ci fib]
+30.2 +20.5 56 +37 +38 очень
душно
1010.5 1009.2
12 17.08 СВ 3 7000 м 8/3 600 м
[Sc diur, vesp As op Ci fib]
+28.1 +22.6 72 +37 +37 очень
душно
1011.8 1010.5 +32.2
15 17.08 В 2 6000 м мгла 6/1 660 м
[Sc diur, vesp As op Ci fib]
+27.1 +23.3 80 +37 +37 очень
душно
1013.2 1011.8
18 17.08 В 2 5000 м мгла 6/1 660 м
[Sc diur, vesp As op Ci fib]
+26.4 +22.2 78 +34 +34 очень
душно
1012.4 1011.0
21 17.08 ЮВ 2 7000 м 6/1 630 м
[Sc diur, vesp As op Ci fib]
+24.1 +18.8 72 +29 +29 душно 1011.5 1010.1
00 18.08 ЮВ 2 5000 м мгла 6/1 660 м
[Sc diur, vesp As op Ci fib]
+24.8 +21.3 81 +31 +32 очень
душно
1013.2 1011.9 +22.5
03 18.08 СВ 4 9000 м 5/1 630 м
[Sc diur, vesp As op Ci fib]
+30.9 +17.6 45 +35 +42 очень
душно
1013.8 1012.5
06 18.08 СВ 5 10 км 6/1 600 м
[Sc diur, vesp As op Ci fib]
+32.0 +20.1 49 +38 +45 очень
душно
1011.5 1010.2
09 18.08 СВ 5 10 км 6/3 600 м
[Sc diur, vesp As op Ci fib]
+30.3 +20.9 57 +38 +39 очень
душно
1010.6 1009.3
12 18.08 В 3 8000 м 8/3 600 м
[Sc diur, vesp As op Ci fib]
+27.4 +20.4 66 +34 +34 очень
душно
1012.3 1011.0 +32.4
15 18.08 ЮВ 2 7000 м 8/3 600 м
[Sc diur, vesp As op Ci fib]
+24.8 +21.0 79 +31 +31 очень
душно
1014.2 1012.9
18 18.08 Ю 2 5000 м мгла 8/3 600 м
[Sc diur, vesp As op Ci fib]
+23.4 +20.5 84 +31 +31 очень
душно
1013.7 1012.4
21 18.08 Ю 2 5000 м мгла 8/3 600 м
[Sc diur, vesp As op Ci fib]
+23.0 +20.4 85 +30 +30 очень
душно
1012.8 1011.4
00 19.08 ЮЗ 2 4500 м мгла 6/1 630 м
[Sc diur, vesp As trans Ci fib]
+23.0 +21.2 90 +31 +32 очень
душно
1014.1 1012.7 +21.5
03 19.08 СЗ 1 8000 м 6/1 600 м
[Sc diur, vesp As trans Ci fib]
+29.7 +20.4 57 +36 +48 очень
душно
1013.8 1012.5
06 19.08 С 4 10 км 6/1 600 м
[Sc diur, vesp As trans Ci fib]
+32.4 +20.6 50 +39 +48 очень
душно
1011.4 1010.1
09 19.08 С 4 10 км 6/1 600 м
[Sc diur, vesp As trans Ci fib]
+30.3 +21.2 58 +38 +40 очень
душно
1010.2 1008.9
12 19.08 С 2 8000 м 6/1 600 м
[Sc diur, vesp As trans Ci fib]
+27.3 +21.7 72 +35 +35 очень
душно
1012.3 1011.0 +32.6
15 19.08 В 2 4000 м мгла 6/1 600 м
[Sc diur, vesp As op Ci fib]
+26.1 +21.8 77 +34 +34 очень
душно
1013.3 1011.9
18 19.08 Ю 2 8000 м 6/3 600 м
[Sc diur, vesp As op Ci fib]
+25.1 +19.0 69 +30 +30 душно 1012.2 1010.9
21 19.08 Ю 2 5000 м мгла 6/1 660 м
[Sc diur, vesp As op Ci fib]
+23.8 +19.1 75 +29 +29 душно 1011.5 1010.2
00 20.08 Ю 2 5000 м мгла 6/1 660 м
[Sc diur, vesp As op Ci fib]
+24.4 +19.5 74 +30 +31 очень
душно
1012.5 1011.2 +22.7
03 20.08 СВ 4 8000 м 6/3 600 м
[Sc diur, vesp As op Ci fib]
+29.4 +20.3 58 +36 +42 очень
душно
1013.1 1011.8
06 20.08 В 5 9000 м 6/3 600 м
[Sc diur, vesp As op Ci fib]
+31.1 +20.7 54 +38 +43 очень
душно
1010.3 1009.0
09 20.08 СВ 8 9000 м 6/3 600 м
[Sc diur, vesp As trans Ci fib]
+29.8 +20.5 57 +37 +37 очень
душно
1009.0 1007.7
12 20.08 В 4 8000 м 6/3 600 м
[Sc diur, vesp As trans Ci fib]
+28.1 +19.2 58 +33 +33 очень
душно
1010.5 1009.2 +31.8
15 20.08 В 2 7000 м 6/1 660 м
[Sc diur, vesp As trans Ci fib]
+26.7 +19.7 65 +32 +32 очень
душно
1011.7 1010.4
18 20.08 В 4 7000 м 6/1 660 м
[Sc diur, vesp As trans Ci fib]
+26.3 +20.6 71 +33 +33 очень
душно
1010.6 1009.3
21 20.08 В 2 6000 м 6/1 660 м
[Sc diur, vesp As trans Ci fib]
+26.0 +19.8 69 +32 +32 очень
душно
1010.2 1008.9
00 21.08 В 2 8000 м 5/1 660 м
[Sc diur, vesp As trans Ci fib]
+26.6 +19.9 67 +33 +34 очень
душно
1011.3 1010.0 +24.2
03 21.08 В 5 10 км 5/1 600 м
[Sc diur, vesp As trans Ci fib]
+32.1 +19.9 49 +38 +44 очень
душно
1012.2 1010.9
06 21.08 СВ 8 10 км 5/1 630 м
[Sc diur, vesp As trans Ci fib]
+32.7 +18.6 43 +37 +39 очень
душно
1009.8 1008.7
09 21.08 СВ 8 9000 м 5/1 600 м
[Sc diur, vesp As trans Ci fib]
+31.0 +20.3 53 +38 +38 очень
душно
1009.1 1007.8
12 21.08 В 4 8000 м 6/1 600 м
[Sc diur, vesp As trans Ci fib]
+27.8 +22.0 71 +36 +36 очень
душно
1011.6 1010.3 +33.2
15 21.08 В 4 8000 м 6/3 630 м
[Sc diur, vesp As trans Ci fib]
+27.1 +21.9 73 +35 +35 очень
душно
1013.2 1011.9
18 21.08 ЮВ 3 6000 м мгла 6/3 630 м
[Sc diur, vesp As trans Ci fib]
+26.4 +22.2 78 +34 +34 очень
душно
1012.9 1011.6
21 21.08 ЮВ 2 5000 м мгла 6/3 630 м
[Sc diur, vesp As trans Ci fib]
+26.1 +21.6 76 +33 +33 очень
душно
1012.6 1011.3
00 22.08 ЮЗ 2 5000 м мгла 6/3 630 м
[Sc diur, vesp As trans Ci fib]
+24.9 +21.4 81 +32 +33 очень
душно
1014.6 1013.3 +24.1
03 22.08 В 4 10 км 8/3 600 м
[Sc As op Ci fib]
+30.9 +21.4 57 +39 +44 очень
душно
1013.6 1012.3
06 22.08 СВ 6 10 км 6/3 600 м
[Sc As op Ci fib]
+31.5 +22.0 57 +40 +45 очень
душно
1011.4 1010.0

 

Местоположение метеостанции Аэропорт Сукарно-Хатта (Индонезия): широта -6.12 долгота 106.65 высота над уровнем моря 8 м.

В архиве по умолчанию представлена погода в Аэропорту Сукарно-Хатта за последнюю неделю. Архивные данные за месяц целиком и за предыдущие месяцы, начиная с января 2011 года, Вы можете получить, выбрав интересующий диапазон дат из раскрывающегося списка и нажав кнопку "Ввод!".


*Определитесь, кто Вы:
робот инопланетянин человек

Внимание! Время в таблицах - всемирное. Для получения местного времени необходимо прибавить поправку, которая равна 7 ч.

Смотрите также архив погоды в соседних городах и на ближайших метеорологических станциях:

Погода в Чуруге (Индонезия) (12 км)
Погода в Джакарте (Индонезия) (21 км)
Погода в Джакарта порту (Индонезия) (24 км)
Погода в Серанге (Индонезия) (58 км)
Погода в Цитеко (Индонезия) (72 км)
Погода в Бандунге (Индонезия) (134 км)
Погода в Сиребоне (Индонезия) (191 км)
Погода в Танджунгкаранге (Индонезия) (198 км)
Погода в Тегале (Индонезия) (288 км)
Погода в Чилачапе (Индонезия) (316 км)

Пояснения к столбцам:

Ветер - указаны скорость ветра в м/с - средняя за 10 мин, порывы в срок и между сроками (в фигурных скобках) и направление, откуда дует ветер: С - северный, СВ - северо-восточный, В - восточный, ЮВ - юго-восточный, Ю - южный, ЮЗ - юго-западный, З - западный, СЗ - северо-западный.
Видимость - горизонтальная дальность видимости в метрах или километрах. При видимости от 1 до 10 км при отсутствии осадков обычно наблюдается дымка, при ухудшении видимости до 1 км и менее - туман. В сухую погоду видимость может ухудшаться дымом, пылью или мглою.
Явления - указаны атмосферные явления, наблюдавшиеся в срок или в последний час перед сроком; фигурными скобками обозначены явления, наблюдавшиеся между сроками (за 1-3 часа до срока); квадратными скобками обозначены град или гололедные отложения с указанием их диаметра в мм.
Облачность - указаны через наклонную черту общая и нижняя облачность в баллах и высота нижней границы облаков в метрах; квадратными скобками обозначены формы облаков: Ci - перистые, Cs - перисто-слоистые, Cc - перисто-кучевые, Ac - высококучевые, As - высокослоистые, Sc - слоисто-кучевые, Ns - слоисто-дождевые, Cu - кучевые, Cb - кучево-дождевые. Подробнее классификацию облаков см. в Атласе облаков (PDF).
T - Температура воздуха - температура, измеренная на высоте 2 м над землей.
Td - Температура точки росы - температура, при понижении до которой содержащийся в воздухе водяной пар достигнет насыщения.
f - Относительная влажность воздуха - влажноcть воздуха, измеренная на высоте 2 м над землей.
Te - Эффективная температура - температура, которую ощущает одетый по сезону человек в тени. Характеристика душности погоды. При расчете учитывается влияние влажности воздуха и скорости ветра на теплоощущения человека.
Tes - Эффективная температура на солнце - температура, которую ощущает человек, с поправкой на солнечный нагрев. Характеристика знойности погоды. Зависит от высоты солнца над горизонтом, облачности и скорости ветра. Ночью, в пасмурную погоду, а также при ветре 12 м/с и более поправка равна нулю.
P - Атмосферное давление - приведенное к уровню моря атмосферное давление.
Po - Атмосферное давление - измеренное на уровне метеостанции атмосферное давление.
Tmin - Минимальная температура - минимум температуры воздуха на высоте 2 м над землей.
Tmax - Максимальная температура - максимум температуры воздуха на высоте 2 м над землей.
R - Количество осадков - Количество выпавших осадков за период времени, мм. При наведении курсора мыши на число - период времени, за который выпало указанное количество осадков.
R24 - Количество осадков - Количество выпавших осадков за 24 часа, мм.
S - Снежный покров - Высота снежного покрова, см. При наведении курсора мыши на число - состояние снежного покрова и степень покрытия местности в баллах.